Tracking 19794 objects as of 22-Jul-2019
HD Live streaming from Space Station
objects crossing your sky now

FENGYUN 1C DEB

Track FENGYUN 1C DEB now!
10-day predictions


NORAD ID: 31937
Int'l Code: 1999-025CMN
Perigee: 556.1 km
Apogee: 883.5 km
Inclination: 99.3 °
Period: 99.0 minutes
Semi major axis: 7090 km
RCS: 0.0094 m2 (small)
Launch date: May 10, 1999
Source: People's Republic of China (PRC)
Launch site: Taiyaun Space Center, China (TSC)

Note: This is SATELLITE DEBRIS
aabbcc
Your satellite tracking list
Your tracking list is empty




NASA's NSSDC Master Catalog

Two Line Element Set (TLE):
1 31937U 99025CMN 19198.16189205  .00000326  00000-0  66381-4 0  9997
2 31937  99.2778 332.7919 0230829 179.5041 180.6425 14.53982900637892
Source of the keplerian elements: AFSPC